Location: Bailey Inglish Elementary School
(33.5826°N, 96.1780°W)
Time: 14:50:01
(UTC+00:00)

Hubble Space Telescope - Visible Passes

Search period start: 21 June 2024 00:00
Search period end: 01 July 2024 00:00
Orbit: 510 x 514 km, 28.5° (Epoch: 21 June)

Date Brightness Start Highest point End Pass type
(mag) Time Alt. Az. Time Alt. Az. Time Alt. Az.
26 Jun 3.0 09:36:22 11° SSE 09:36:24 11° SSE 09:37:45 10° SE visible
27 Jun 3.0 09:18:08 12° SE 09:18:08 12° SE 09:19:05 10° SE visible
28 Jun 3.2 08:59:53 11° SE 08:59:53 11° SE 09:00:14 10° ESE visible
28 Jun 1.7 10:34:40 11° SW 10:38:04 32° S 10:41:38 10° ESE visible
29 Jun 1.5 10:16:26 17° SW 10:18:51 34° S 10:22:29 10° ESE visible
30 Jun 1.4 09:58:10 26° SW 09:59:39 35° S 10:03:18 10° ESE visible
